Regional Weather Roundup
Issued by NWS

Home | Current Version | Previous Version | Graphics & Text | Print | Product List | Glossary On
Versions: 1 2 3 4 5 6 7 8 9 10 11 12 13 14 15 16 17 18 19 20 21 22 23 24 25 26 27 28 29 30 31 32 33 34 35 36 37 38 39 40 41 42 43 44 45 46 47 48 49 50
000
ASUS43 KDMX 282207
RWRIA

WEATHER ROUNDUP FOR IOWA
NATIONAL WEATHER SERVICE DES MOINES IA
500 PM CDT TUE JUL 28 2015

NOTE: "FAIR" INDICATES FEW OR NO CLOUDS BELOW 12,000 FEET WITH NO
SIGNIFICANT WEATHER AND/OR OBSTRUCTIONS TO VISIBILITY.

* - THESE STATIONS ARE NOT NWS STATIONS...THUS NOT UNDER NWS
QUALITY CONTROL.  THEY ALSO DO NOT REPORT WEATHER SUCH
AS PRECIPITATION OR FOG.

IAZ001>003-012>014-020>022-031>034-043>046-282300-
   NORTHWEST IOWA

CITY           SKY/WX    TMP DP  RH WIND       PRES   REMARKS
CARROLL *      MOSUNNY   82  79  89 W6        29.88F HX  93
CHEROKEE *     CLOUDY    73  73 100 CALM      29.92S
DENISON *      CLOUDY    81  77  89 N7        29.88S HX  88
LE MARS *      CLOUDY    77  66  69 NW7       29.94R
ORANGE CITY *  MOSUNNY   79  63  57 NW12      29.93S HX  80
SHELDON *      MOSUNNY   79  64  61 NW12      29.92R HX  81
SIOUX CITY     CLOUDY    80  67  64 NW8       29.93R HX  82
SPENCER        LGT RAIN  75  71  87 W9        29.91S
STORM LAKE *   DRIZZLE   72  72 100 NW10      29.94R
$$

IAZ055>058-069>071-079>083-090>094-282300-
   SOUTHWEST IOWA

CITY           SKY/WX    TMP DP  RH WIND       PRES   REMARKS
ATLANTIC *     MOSUNNY   88  79  74 SW8       29.86F HX 102
AUDUBON *      SUNNY     88  81  79 S6        29.88F HX 105
CLARINDA *     PTSUNNY   91  79  66 S9        29.87S HX 107
COUNCIL BLFS * SUNNY     88  77  70 NW5       29.88S HX 100
CRESTON *      PTSUNNY   90  79  70 SW12      29.86F HX 105
HARLAN  *      MOSUNNY   86  84  94 SW8       29.91S HX 108
LAMONI         SUNNY     92  76  59 S12       29.86F HX 104
RED OAK *      PTSUNNY   90  79  70 SW7       29.86S HX 105
SHENANDOAH *   PTSUNNY   91  79  66 S8G14     29.85F HX 107
$$

IAZ047>049-059>061-072>074-084-282300-
   CENTRAL IOWA

CITY           SKY/WX    TMP DP  RH WIND       PRES   REMARKS
AMES           CLOUDY    77  77 100 NE3       29.83F
ANKENY *       PTSUNNY   79  77  94 SE15G22   29.83F HX  83
CHARITON *     SUNNY     90  79  70 S8        29.85F HX 105
DES MOINES     TSTM      80  75  84 SE14G26   29.84F HX  85
GRINNELL*      CLOUDY    75  68  78 N8        29.93S
KNOXVILLE *    PTSUNNY   84  79  84 NE14      29.85F HX  96
MARSHALLTOWN   LGT RAIN  75  72  90 S15       29.86F
PELLA *        CLOUDY    82  79  89 NE8       29.89F HX  93
PERRY *          N/A     81  77  89 SW3       29.84F HX  88
$$

IAZ004>006-015-016-023>025-035-036-282300-
   NORTH CENTRAL IOWA

CITY           SKY/WX    TMP DP  RH WIND       PRES   REMARKS
ALGONA *       CLOUDY    79  72  78 SW12      29.90S HX  82
CLARION *      SUNNY     79  72  78 S7        29.89F HX  82
ESTHERVILLE    CLOUDY    77  72  84 W12G17    29.90R
FORT DODGE *   PTSUNNY   81  72  74 S7        29.91R HX  84
MASON CITY     CLOUDY    76  72  87 SW12      29.91R
FOREST CITY *  CLOUDY    79  70  73 SW12G17   29.89S HX  81
IOWA FALLS *     N/A     77  72  83 CALM      29.90F
$$

IAZ007>011-017>019-026>030-037>042-050>054-066-282300-
   NORTHEAST IOWA

CITY           SKY/WX    TMP DP  RH WIND       PRES   REMARKS
CEDAR RAPIDS   LGT RAIN  76  74  93 SW9       29.90F
CHARLES CITY * SUNNY     77  73  88 SW13      29.92R
CLINTON *      CLOUDY    81  73  78 S5        29.93R HX  85
DECORAH *      SUNNY     79  72  78 VRB6G12   29.90R HX  82
DUBUQUE        PTSUNNY   81  72  74 S7        29.93R HX  85
MONTICELLO *   SUNNY     79  73  83 S5        29.91S HX  82
OELWEIN *      SUNNY     75  72  88 S5        29.93R
WATERLOO       CLOUDY    74  69  85 SW5       29.89R
$$

IAZ064-065-067-068-078-282300-
   EAST CENTRAL IOWA

CITY           SKY/WX    TMP DP  RH WIND       PRES   REMARKS
DAVENPORT      CLOUDY    83  77  82 S7        29.90R HX  92
IOWA CITY      CLOUDY    82  73  74 W14       29.94R HX  87
MT. PLEASANT * PTSUNNY   90  73  58 E3        29.89F HX  98
MUSCATINE *    SUNNY     84  73  70 SW5       29.90R HX  91
QUAD CITIES    CLOUDY    84  76  76 SW6       29.88S HX  93
$$

IAZ062-063-075>077-085>089-095>099-282300-
   SOUTHEAST IOWA

CITY           SKY/WX    TMP DP  RH WIND       PRES   REMARKS
BURLINGTON     PTSUNNY   89  79  72 SE5       29.88F HX 104
FAIRFIELD *    SUNNY     86  77  74 SE7       29.90R HX  97
FORT MADISON * SUNNY     91  81  70 SW9       29.89F HX 110
KEOKUK *       SUNNY     91  81  70 S10G16    29.88F HX 110
OSKALOOSA *    PTSUNNY   86  79  79 NE6       29.90S HX  99
CENTERVILLE *  MOSUNNY   90  81  74 S8        29.89F HX 108
OTTUMWA        CLOUDY    89  81  77 SE6       29.87S HX 108
WASHINGTON *   SUNNY     84  77  79 SE3       29.92S HX  94
$$

ABBREVIATIONS USED IN REMARKS
   TC - TEMPERATURES IN CELSIUS
  WCI - WIND CHILL INDEX
   HX - HEAT INDEX
  VSB - VISIBILITY
$$



USA.gov is the U.S. government's official web portal to all federal, state and local government web resources and services.